Other Surface Observations
Issued by NWS

Current Version | Previous Version | Text Only | Print | Product List | Glossary On
Versions: 1 2 3 4 5 6 7 8 9 10 11 12 13 14 15 16 17 18 19 20 21 22 23 24 25 26 27 28 29 30 31 32 33 34 35 36 37 38 39 40 41 42 43 44 45 46 47 48 49 50
013
SXUS52 KTAE 242018
OSOTAE
OSOTAE
North Florida/South Alabama/Southwest Georgia Weather Roundup
National Weather Service Tallahassee Florida
400 PM EDT SUN JUL 24 2016

Note: "fair" indicates few or no clouds below 12,000 feet with no
significant weather and/or obstructions to visibility.

!FLZ017-115-028-034-025-242100
...North Florida...

CITY           SKY/WX    TMP DP  RH WIND       PRES   REMARKS
TALLAHASSEE    HVY RAIN  85  77  77 E26G39    30.01S SQUALL  HX  95
APALACHICOLA   MOSUNNY   89  76  65 SE13      30.00F HX 100
PERRY          SUNNY     91  72  53 SW7       30.00F HX  99
CROSS CITY       N/A     94  74  52 SW7       29.99F HX 104
JACKSONVILLE   MOSUNNY   96  71  44 E8        30.00F HX 103
$$

!FLZ112-006-005-002-011-242100
...Florida Panhandle...

CITY           SKY/WX    TMP DP  RH WIND       PRES   REMARKS
MARIANNA       MOSUNNY   92  71  50 E8        29.97F HX  98
BONIFAY        FAIR     110  73  31 E5        29.99F HX 123
PANAMA CITY NW LGT RAIN  78  74  87 E7        29.99S
TYNDALL AFB    CLOUDY    82  77  83 VRB7      29.99  HX  91
TYND DRONE APT NOT AVBL
DE FUNIAK SPR  FAIR      92  71  49 SE8       29.99F HX  98
EGLIN AFB      PTSUNNY   86  73  66 NE3       29.98S HX  93
DESTIN         PTSUNNY   88  78  72 SE13G22   29.99S HX 101
HURLBURT       MOSUNNY   91  73  53 SE15      29.96F HX  99
CRESTVIEW      HVY RAIN  78  72  81 VRB3      30.00S VSB 3/4
PENSACOLA      CLOUDY    87  75  67 SE9       29.98F HX  96
$$

!ALZ063-066-242100
...South Alabama...

CITY           SKY/WX    TMP DP  RH WIND       PRES   REMARKS
DOTHAN         SUNNY     92  72  51 E7        30.03F HX  99
OZARK CAIRNS   SUNNY     93  74  53 SE8       30.00F HX 102
FT RUCKER HELI MOSUNNY   92  71  50 SE5       29.98F HX  98
RUCKER HELI 3  FAIR      91  69  48 E9        30.01F HX  95
RUCKER HELI 2  PTSUNNY   92  71  50 E16       29.99F HX  98
FLORALA APT    MOSUNNY   91  71  51 E9        30.01F HX  97
ANDALUSIA      MOSUNNY   97  71  42 SE8       29.99F HX 104
TROY           SUNNY     92  73  53 SE8       30.01F HX 100
EUFALA         FAIR      97  73  45 SW5       29.99F HX 107
MOBILE         MOSUNNY   89  75  63 SE16      29.98F HX  99
$$

!GAZ120>161-242100
...Southwest and South Central Georgia...

CITY           SKY/WX    TMP DP  RH WIND       PRES   REMARKS
THOMASVILLE      N/A     95  75  52 E8        30.01F HX 107
BAINBRIDGE     SUNNY     97  70  41 SE6       30.00F HX 103
MOODY AFB      MOSUNNY   94  67  41 VRB1      30.00F HX  98
VALDOSTA       MOSUNNY   94  69  44 S6        30.00F HX  99
MOULTRIE       SUNNY     95  70  43 SE3       30.02F HX 101
BLAKELY        MOSUNNY   95  68  41 S3        30.00F HX  99
ALBANY         PTSUNNY   97  68  38 S12       30.02F HX 102
TIFTON         FAIR      94  67  40 S3        30.01F HX  98
FITZGERALD     FAIR      98  73  45 SE8       30.03F HX 108
CORDELE        FAIR      97  67  37 S9        30.01F HX 101
AMERICUS       FAIR      95  61  31 S7        30.03F HX  95
HOMERVILLE     FAIR      97  70  41 S7        30.00F HX 103
$$

!GMZ750-755-770-775-242100
...Coastal and Buoy Obs...

STATION/POSITION TIME  TEMP    WIND        PRES    VSBY  WAVE
                       AIR SEA DIR/SP/G                  HT/PER
                 (UTC) (F)     (DEG/KT/KT) (MB)    (MI)  (FT/S)
KEATON BEACH     2000   85     230/ 11/ 12 1015.7F
CEDAR KEY        2000   86     250/  7/  9 1016.2F
C TOWER          2000   82     170/ 11/ 13 1016.4F
APALACHICOLA BUO 1950   83 88  190/ 10/ 12 1016.2F         2/ 4
PANAMA CITY BUOY 1950   81 88  250/  8/ 10 1015.6F         1/ 4
MOBILE BUOY      1900   80 89  100/  4/  6 1015.0F
ORANGE BCH AL BU 1950   85 89   80/  6/ 10 1015.3F         1/ 3
$$




USA.gov is the U.S. government's official web portal to all federal, state and local government web resources and services.